Home > Weather > Haifa > Past weeks

Flag for Israel Past Weather in Haifa, Israel — Yesterday and Last 2 Weeks

Now
72 °F

Clear.


Feels Like: 76 °F
Forecast: 68 / 80 °F
Wind: 6 mph from Southeast

Location: Dov Airport

Current Time: May 26, 2016 at 1:54:15 AM

Latest Report: May 25, 2016 at 10:50 PM


Visibility: 10 mi

Pressure: 29.89 "Hg

Humidity: 61%

Dew Point: 57 °F

Location of HaifaLocation

Past Weather in Haifa — Graph

°F

Haifa Temperature Yesterday

Maximum temperature yesterday: 77 °F (at 1:50 PM)
Minimum temperature yesterday: 70 °F (at 4:57 AM)
Average temperature yesterday: 73 °F

High & Low Weather Summary for the Past Weeks

 TemperatureHumidityPressure
High93 °F (May 15, 11:50 AM)94% (May 17, 5:50 AM)30.01 "Hg (May 17, 5:50 AM)
Low63 °F (May 12, 5:50 AM)11% (May 22, 4:50 PM)29.74 "Hg (May 16, 4:50 PM)
Average75 °F63%29.93 "Hg
* Reported May 10 10:50 PM — May 25 10:50 PM, Haifa, Weather by CustomWeather, © 2016

Note: Actual official high and low records may vary slightly from our data, if they occured in-between our weather recording intervals... More about our weather records

Advertising

Haifa Weather History for the Previous 24 Hours

Scroll right to see more
 ConditionsComfort  
Time TempWeatherWind HumidityBarometerVisibility
10:50 PM
Wed, May 25
72 °FClear.6 mph61%29.89 "Hg10 mi
9:50 PM70 °FClear.3 mph73%29.92 "Hg10 mi
8:50 PM72 °FClear.3 mph73%29.92 "Hg10 mi
7:50 PM73 °FPassing clouds.6 mph69%29.92 "HgN/A
6:50 PM73 °FSunny.6 mph69%29.92 "Hg10 mi
5:50 PM75 °FSunny.9 mph65%29.92 "Hg10 mi
4:50 PM75 °FSunny.9 mph61%29.95 "Hg10 mi
3:50 PM77 °FSunny.10 mph54%29.95 "Hg10 mi
2:50 PM75 °FSunny.10 mph57%29.95 "Hg10 mi
1:50 PM77 °FSunny.13 mph54%29.98 "Hg10 mi
12:50 PM75 °FSunny.12 mph61%29.98 "Hg10 mi
11:50 AM75 °FSunny.12 mph57%29.98 "Hg10 mi
10:50 AM75 °FSunny.12 mph57%29.98 "Hg10 mi
9:50 AM73 °FSunny.9 mph61%29.98 "Hg10 mi
8:50 AM73 °FPassing clouds.9 mph61%29.98 "HgN/A
7:50 AM72 °FScattered clouds.8 mph65%29.98 "HgN/A
6:50 AM70 °FScattered clouds.8 mph69%29.98 "HgN/A
5:50 AM70 °FPassing clouds.9 mph69%29.95 "HgN/A
4:57 AM70 °FPassing clouds.8 mph69%29.95 "HgN/A
Weather by CustomWeather, © 2016

See weather overviewHow to use our weather pages